Wind_Speed
25 24 24 23 23 19 19 16 14 11 9 8 6 5 4 5 4 6 6 6 6 6 5 3 5 10 8 9 9 6 9 9 6 4 4 8 11 13 15 20 21 24 27 26 25
27 27 28 28 28 24 25 23 19 15 13 12 11 9 8 7 8 5 6 6 5 5 6 5 4 6 9 7 6 4 6 6 5 4 7 7 9 13 14 16 18 21 22 24 27
31 31 31 32 32 29 28 28 24 21 17 15 14 13 12 11 9 8 8 7 6 5 4 6 6 6 4 10 5 4 1 2 2 2 5 6 8 11 13 14 15 18 22 22 26
34 34 34 34 35 34 32 31 29 26 22 19 17 16 15 15 12 13 13 10 8 7 7 7 9 10 8 5 7 7 4 3 1 3 6 6 8 11 12 15 14 16 18 23 27
39 39 39 38 38 38 37 35 32 31 28 24 22 21 18 18 17 17 16 15 12 10 9 10 11 12 12 10 5 8 9 4 3 3 3 4 4 8 9 15 15 15 17 21 24
44 44 42 42 42 43 41 40 37 34 33 31 27 24 22 20 20 21 20 18 16 15 12 12 12 12 14 14 12 9 12 8 5 5 3 5 5 7 7 10 13 13 15 17 22
46 47 46 45 44 45 46 44 41 39 37 35 32 30 26 21 24 23 23 19 18 20 18 13 12 13 13 17 14 13 12 12 11 9 5 3 10 10 10 6 7 11 15 16 18
46 47 48 47 46 45 47 48 47 45 42 41 38 36 31 24 22 27 23 23 22 23 24 20 12 12 14 17 16 16 15 8 16 10 10 7 5 17 13 9 2 8 10 14 16
50 49 49 49 47 46 46 46 47 48 48 46 43 40 37 31 21 27 25 26 26 26 25 21 17 14 14 15 18 18 14 13 15 13 16 12 8 13 15 15 10 8 10 14 17
52 52 52 51 49 48 47 46 45 46 47 47 45 42 39 35 26 25 27 26 25 28 28 26 19 15 17 19 17 14 19 16 17 19 16 14 12 14 9 16 15 10 9 13 18
46 48 52 53 51 49 48 46 46 46 44 45 43 41 38 36 34 29 25 26 26 28 27 28 24 18 20 23 24 26 24 19 20 23 22 13 14 14 16 11 19 13 7 10 17
45 45 48 48 51 51 48 47 46 47 44 43 42 39 38 38 36 34 28 27 27 25 29 31 27 23 25 25 24 22 22 18 20 24 16 14 12 10 11 10 20 14 10 6 15
45 42 44 45 44 47 50 47 46 45 45 42 40 39 40 40 36 34 30 26 27 27 29 29 24 31 26 26 25 23 18 18 21 20 18 16 11 13 12 9 12 13 14 9 13
41 41 41 44 41 40 43 46 47 44 44 42 40 38 40 42 43 34 32 28 29 29 29 31 27 29 29 25 22 23 20 22 20 22 17 21 15 14 13 12 11 14 15 16 16
37 40 40 41 41 37 35 38 42 43 43 43 40 37 39 39 39 37 32 32 30 29 30 28 29 28 30 21 25 22 25 22 21 20 20 22 21 12 18 15 12 20 19 20 22
33 34 37 37 39 36 34 33 36 39 44 42 39 36 36 35 34 37 32 34 30 30 32 30 34 29 25 25 25 23 21 22 20 19 22 16 23 13 12 19 17 20 22 22 22
32 32 30 34 35 34 32 30 34 38 40 39 39 36 32 32 32 34 33 34 33 34 33 34 31 27 27 23 22 20 20 16 15 17 18 20 26 15 18 26 24 23 24 26 20
28 30 28 30 32 32 31 30 32 31 36 37 34 33 28 27 26 30 33 35 35 32 26 30 28 25 25 23 18 19 18 16 15 14 15 24 25 15 20 20 22 26 28 18 13
25 26 27 28 29 30 31 32 31 30 29 33 33 26 28 29 26 28 30 32 35 34 33 24 28 28 25 23 24 21 21 14 19 20 18 17 18 20 18 19 18 21 25 17 12
25 22 23 29 27 30 30 28 32 32 25 27 32 30 28 30 28 26 27 31 34 36 31 25 21 28 28 27 25 26 19 21 18 17 18 15 18 16 15 10 9 12 12 14 17
23 21 19 23 27 29 32 31 33 27 26 27 31 34 33 29 29 28 27 28 31 36 36 33 31 21 30 32 24 25 24 26 20 21 17 16 14 20 15 11 11 8 11 16 19
17 22 23 21 24 27 28 31 31 27 29 28 29 33 35 33 30 30 28 31 28 30 33 34 31 32 25 22 27 22 21 25 26 23 22 24 17 22 16 12 16 15 15 18 16
15 17 21 26 25 27 28 30 30 30 30 30 28 30 34 38 33 31 31 31 28 25 26 27 29 29 29 31 31 31 29 29 29 27 22 17 13 21 16 12 14 17 18 17 16
13 12 15 24 26 26 28 30 27 26 28 28 27 29 32 35 38 33 27 31 31 28 25 25 25 27 25 24 22 26 27 27 26 20 17 19 17 24 17 14 15 12 8 13 17
11 10 10 18 25 26 27 31 26 27 28 28 26 28 32 35 36 37 33 27 30 31 27 27 24 24 28 29 27 23 20 24 24 19 18 18 23 24 24 24 19 16 12 11 14
12 11 9 15 24 23 24 26 29 25 27 28 25 27 31 35 36 34 34 32 29 28 29 26 27 21 22 28 24 21 24 26 26 24 23 22 24 22 20 21 23 19 15 14 16
15 13 12 8 11 22 29 24 26 20 21 22 24 27 30 34 37 38 34 37 33 28 27 27 25 22 19 26 26 23 22 26 29 26 24 21 24 20 18 17 18 17 17 18 18
Wind_Direction
239 230 226 226 233 241 246 250 250 245 252 259 254 254 231 240 203 153 145 141 151 162 177 185 128 127 133 126 116 81 28 29 17 17 89 76 68 65 56 56 46 41 42 41 35
239 240 232 227 235 235 244 251 252 248 244 252 256 252 249 238 251 201 180 167 167 183 170 197 252 137 129 147 124 106 50 20 16 77 64 45 37 53 50 49 52 40 40 39 32
237 239 239 233 238 238 239 248 250 250 241 240 251 254 253 251 248 248 227 192 187 181 201 198 231 266 130 140 161 163 129 43 77 31 34 39 33 43 40 35 45 43 30 33 29
239 238 238 241 241 241 241 243 250 252 248 236 243 249 253 251 245 248 242 233 203 197 192 222 228 238 250 155 154 174 160 170 85 5 359 17 23 31 26 30 24 36 34 40 35
243 241 240 239 242 243 243 242 247 252 252 244 243 246 247 254 251 243 245 245 242 211 210 206 229 236 235 249 169 195 190 193 198 251 325 332 20 28 21 24 15 33 40 33 32
246 245 244 242 240 239 242 244 244 247 253 254 250 241 245 250 255 251 247 246 253 252 216 220 228 241 240 246 236 197 197 202 228 240 248 298 312 344 350 21 17 22 20 15 20
251 249 248 245 244 242 239 240 242 245 249 254 257 256 249 247 251 254 253 250 252 258 258 230 222 233 246 244 246 231 221 209 238 233 216 246 295 298 298 327 4 354 1 351 1
258 254 251 250 245 243 243 241 240 241 245 249 255 260 259 244 249 253 253 253 250 251 257 259 240 239 241 253 243 230 234 255 272 238 218 242 297 298 276 269 273 317 345 339 349
260 257 255 252 250 246 242 241 241 242 242 246 250 253 259 257 242 251 254 253 251 254 256 256 252 238 237 244 242 241 240 257 251 260 236 250 260 291 262 264 236 269 310 319 332
260 259 256 254 251 249 247 243 241 239 240 242 244 248 251 256 250 249 252 252 251 251 254 254 249 239 231 237 239 245 258 248 246 263 264 270 248 297 263 260 241 242 286 314 325
264 260 258 254 251 250 248 246 243 241 238 240 241 244 248 248 252 243 249 253 251 250 251 250 246 237 234 232 231 237 240 244 247 257 260 254 252 267 275 236 233 234 258 289 316
263 260 259 255 252 249 248 247 244 243 239 238 238 236 240 246 246 251 247 251 255 250 247 250 248 238 234 238 244 240 244 246 245 252 247 248 248 283 291 280 240 243 236 273 297
263 260 257 256 253 250 247 248 247 245 242 238 240 238 234 242 247 249 249 245 250 250 248 248 245 239 238 239 245 249 254 246 241 241 241 249 275 293 287 287 246 243 243 264 282
261 260 256 255 251 250 247 245 246 247 247 243 240 237 235 236 245 247 247 244 242 245 243 243 238 247 244 239 245 250 254 251 250 238 242 257 262 268 273 283 299 279 280 276 283
267 263 256 251 249 249 246 244 243 242 245 247 240 244 239 238 244 244 246 239 235 237 241 243 239 243 244 239 238 245 245 247 248 250 234 245 256 262 263 264 276 278 278 278 289
267 261 258 250 248 247 243 240 239 234 239 244 246 243 244 240 240 243 235 237 230 231 234 231 237 236 242 238 239 244 249 252 253 250 247 251 251 256 262 268 258 270 273 280 288
265 260 256 248 246 243 239 237 233 234 241 241 242 241 239 238 234 237 234 228 231 227 231 233 239 235 239 239 240 242 243 249 258 247 251 247 256 255 245 260 262 259 264 283 287
263 260 253 248 242 240 236 234 237 240 237 235 237 239 233 227 225 226 226 225 225 228 231 235 232 232 238 238 238 240 236 232 242 249 252 258 259 270 262 267 269 261 266 280 280
259 258 255 244 238 236 234 236 238 239 230 225 225 226 223 225 220 221 224 225 227 227 225 227 231 234 233 233 227 231 237 232 238 235 232 242 269 270 289 284 275 272 266 257 260
254 253 252 238 236 231 233 233 232 232 229 218 217 215 206 216 217 222 225 222 222 224 220 228 228 232 234 234 232 229 231 233 241 231 245 250 265 274 268 281 285 267 235 237 259
245 243 252 239 233 232 232 234 235 230 225 217 214 215 210 208 209 216 226 226 221 225 219 219 222 231 232 238 237 238 239 233 217 225 231 254 267 267 273 239 231 240 235 249 265
268 241 246 241 234 232 233 233 234 229 223 220 215 215 211 211 211 215 221 226 224 225 225 226 234 222 232 233 235 226 235 236 233 250 257 247 246 264 267 244 258 238 238 256 274
263 252 247 234 231 227 230 230 229 225 225 219 215 216 213 212 214 220 214 221 226 227 227 224 226 228 224 232 235 239 239 238 240 240 232 246 256 255 261 265 265 259 250 259 268
260 256 242 226 229 231 230 228 228 224 227 223 216 217 216 214 216 220 221 223 224 224 229 230 233 227 221 239 244 252 238 240 244 239 240 249 240 244 250 269 283 280 282 272 271
235 244 242 224 230 233 236 230 217 219 225 226 216 219 218 216 219 218 224 226 230 230 231 232 237 235 217 213 223 230 234 232 239 233 227 248 231 245 250 257 266 270 279 271 286
229 242 255 242 232 238 238 244 212 217 224 229 221 220 217 217 220 220 222 220 217 228 232 225 229 226 230 227 228 235 230 235 227 226 230 232 251 260 259 263 268 262 274 268 284
232 243 248 250 239 240 237 228 209 214 221 227 223 224 221 219 220 220 219 219 219 214 221 231 229 221 224 222 229 230 222 225 232 234 230 228 243 247 240 242 252 252 249 273 284
Height
5925 5926 5928 5929 5929 5930 5930 5931 5931 5931 5932 5933 5933 5934 5934 5934 5935 5936 5936 5936 5936 5937 5937 5938 5940 5941 5941 5941 5941 5942 5943 5943 5941 5939 5937 5934 5932 5932 5930 5927 5925 5923 5921 5918 5916
5921 5923 5924 5925 5927 5927 5928 5928 5929 5929 5930 5931 5931 5932 5932 5933 5933 5935 5935 5935 5935 5936 5937 5937 5937 5940 5942 5942 5942 5942 5943 5944 5942 5940 5938 5936 5934 5933 5932 5929 5927 5925 5923 5920 5917
5916 5917 5919 5920 5922 5923 5924 5925 5926 5926 5928 5929 5929 5929 5930 5930 5931 5932 5933 5934 5934 5934 5935 5936 5936 5936 5940 5943 5944 5944 5943 5944 5943 5942 5940 5938 5936 5935 5933 5931 5929 5927 5925 5922 5918
5910 5912 5913 5915 5916 5918 5919 5921 5922 5923 5924 5925 5926 5926 5927 5928 5930 5929 5929 5930 5933 5933 5934 5934 5935 5935 5936 5941 5943 5943 5944 5943 5943 5942 5941 5940 5938 5937 5935 5934 5930 5928 5926 5923 5921
5902 5905 5907 5908 5910 5911 5913 5915 5917 5918 5920 5921 5923 5923 5924 5925 5926 5926 5926 5927 5928 5931 5932 5933 5933 5934 5935 5937 5941 5942 5942 5943 5943 5943 5942 5941 5939 5938 5937 5934 5932 5929 5928 5925 5923
5893 5896 5898 5900 5902 5904 5906 5908 5910 5912 5914 5916 5918 5919 5921 5923 5921 5922 5923 5924 5925 5927 5930 5930 5931 5932 5933 5934 5937 5939 5941 5942 5942 5942 5942 5941 5940 5939 5938 5935 5933 5930 5928 5926 5925
5885 5886 5888 5890 5893 5896 5898 5901 5904 5906 5908 5910 5912 5914 5916 5919 5918 5918 5920 5921 5923 5924 5924 5930 5930 5930 5931 5932 5934 5935 5938 5940 5941 5940 5940 5941 5940 5939 5937 5936 5933 5930 5929 5927 5926
5876 5877 5878 5880 5883 5886 5889 5892 5896 5899 5901 5903 5905 5907 5909 5913 5914 5914 5915 5917 5919 5920 5920 5924 5929 5928 5929 5929 5931 5932 5934 5938 5938 5938 5938 5940 5943 5936 5936 5934 5932 5930 5928 5926 5925
5865 5867 5868 5870 5873 5876 5878 5882 5886 5890 5893 5896 5899 5900 5902 5906 5910 5908 5910 5912 5913 5915 5917 5919 5923 5925 5927 5927 5928 5930 5932 5939 5938 5934 5935 5937 5937 5934 5934 5932 5931 5929 5927 5925 5924
5854 5854 5857 5859 5863 5866 5868 5873 5875 5879 5883 5887 5891 5894 5896 5898 5903 5904 5905 5906 5908 5910 5913 5915 5918 5921 5923 5923 5925 5930 5932 5932 5931 5931 5931 5932 5933 5932 5932 5931 5930 5929 5927 5925 5923
5842 5842 5844 5847 5851 5854 5859 5863 5867 5869 5872 5878 5882 5886 5889 5891 5894 5898 5899 5900 5902 5904 5908 5910 5912 5915 5917 5919 5920 5919 5921 5924 5925 5925 5927 5929 5929 5930 5929 5928 5927 5927 5926 5925 5922
5830 5830 5831 5834 5838 5843 5847 5850 5855 5858 5864 5867 5871 5877 5881 5882 5887 5889 5894 5896 5895 5899 5901 5904 5907 5910 5910 5912 5913 5916 5917 5920 5921 5921 5923 5925 5926 5925 5925 5926 5925 5925 5924 5923 5920
5818 5819 5819 5821 5824 5829 5835 5840 5843 5847 5852 5859 5863 5868 5873 5875 5880 5883 5887 5889 5890 5892 5894 5898 5904 5901 5905 5906 5910 5912 5914 5915 5916 5918 5918 5920 5921 5923 5923 5923 5923 5922 5922 5921 5920
5805 5807 5808 5810 5813 5816 5822 5828 5833 5838 5841 5849 5853 5859 5864 5867 5868 5877 5879 5883 5884 5886 5889 5890 5896 5896 5898 5902 5905 5906 5909 5909 5910 5912 5915 5918 5920 5922 5920 5920 5921 5920 5919 5919 5919
5794 5796 5797 5799 5802 5807 5812 5816 5822 5830 5832 5838 5844 5850 5854 5859 5865 5867 5872 5873 5877 5880 5883 5888 5889 5890 5891 5899 5898 5902 5902 5904 5906 5907 5909 5913 5914 5918 5918 5917 5920 5916 5916 5916 5915
5784 5786 5788 5791 5794 5799 5802 5807 5813 5819 5822 5830 5835 5841 5846 5851 5856 5857 5863 5866 5872 5873 5875 5880 5879 5885 5889 5891 5893 5895 5899 5900 5901 5904 5906 5908 5912 5914 5918 5914 5913 5912 5912 5911 5909
5774 5777 5779 5782 5787 5790 5794 5799 5805 5808 5818 5824 5827 5833 5838 5842 5847 5850 5854 5858 5862 5865 5869 5872 5876 5880 5882 5886 5888 5891 5893 5897 5900 5901 5902 5906 5904 5907 5909 5905 5905 5906 5907 5904 5905
5766 5769 5772 5774 5779 5783 5787 5792 5796 5804 5808 5814 5820 5824 5831 5834 5839 5842 5846 5850 5854 5859 5866 5867 5871 5875 5879 5882 5885 5885 5888 5894 5898 5900 5903 5899 5898 5903 5899 5899 5900 5901 5901 5900 5901
5759 5762 5764 5768 5772 5776 5781 5784 5791 5795 5800 5806 5812 5818 5824 5828 5833 5835 5839 5844 5849 5853 5858 5865 5866 5868 5872 5875 5878 5882 5882 5888 5891 5893 5894 5898 5898 5894 5894 5895 5895 5895 5895 5896 5897
5753 5756 5758 5761 5766 5770 5774 5779 5783 5787 5794 5799 5805 5810 5816 5820 5827 5830 5833 5838 5842 5846 5852 5859 5862 5863 5865 5868 5871 5874 5880 5882 5884 5889 5891 5893 5892 5891 5891 5893 5891 5889 5890 5892 5892
5748 5751 5753 5756 5759 5763 5767 5772 5775 5783 5787 5793 5798 5803 5809 5814 5819 5824 5828 5831 5836 5840 5845 5851 5855 5861 5860 5862 5868 5870 5872 5876 5881 5883 5886 5889 5891 5887 5886 5886 5885 5887 5887 5888 5887
5743 5747 5749 5751 5755 5758 5762 5765 5770 5776 5780 5785 5791 5796 5803 5808 5813 5819 5823 5825 5830 5834 5839 5845 5849 5853 5856 5860 5860 5865 5868 5870 5873 5878 5879 5880 5885 5881 5882 5883 5882 5883 5884 5884 5883
5740 5742 5744 5746 5750 5752 5756 5760 5763 5769 5773 5779 5784 5791 5796 5801 5808 5811 5815 5820 5825 5829 5833 5837 5841 5846 5852 5853 5853 5855 5860 5864 5866 5870 5874 5876 5881 5877 5877 5878 5878 5879 5880 5880 5879
5737 5738 5739 5741 5745 5748 5750 5754 5759 5763 5767 5772 5779 5784 5790 5795 5801 5806 5811 5814 5819 5824 5828 5831 5834 5838 5847 5851 5854 5851 5855 5857 5860 5865 5870 5870 5873 5871 5873 5874 5874 5875 5875 5875 5875
5734 5736 5736 5738 5740 5743 5746 5747 5752 5757 5761 5765 5772 5777 5783 5789 5794 5800 5805 5809 5813 5818 5823 5827 5829 5832 5836 5841 5845 5849 5851 5852 5855 5860 5864 5867 5865 5866 5868 5870 5870 5870 5871 5871 5871
5731 5733 5733 5734 5736 5739 5741 5744 5745 5750 5755 5760 5767 5771 5776 5781 5788 5794 5798 5803 5805 5811 5816 5821 5824 5827 5831 5835 5839 5841 5845 5847 5851 5853 5857 5860 5858 5860 5862 5864 5864 5865 5866 5867 5866
5727 5730 5731 5732 5733 5735 5737 5739 5740 5746 5751 5755 5761 5765 5770 5776 5781 5785 5791 5796 5800 5805 5809 5815 5819 5823 5828 5830 5834 5836 5837 5841 5844 5848 5851 5854 5852 5855 5857 5858 5859 5860 5860 5861 5861